Location: Kermapucano
(48.0667°N, 3.3000°W)
Time: 19:43:09
(UTC+00:00)

Cosmos 1782 - Pass Details

Date: 29 November 2020
Orbit: 537 x 551 km, 82.5° (Epoch: 27 January)

Event Time Altitude Azimuth Distance (km) Brightness Sun altitude
Exits shadow 05:50:03 40° 281° (W) 823 3.2 -17.7°
Maximum altitude 05:50:23 41° 267° (W) 809 3.2 -17.7°
Drops below altitude 10° 05:54:10 10° 197° (SSW) 1,825 5.4 -17.1°
Sets 05:56:24 0° 190° (S) 2,715 6.4 -16.7°
